[[{"header":{"parameterUnit":"m.s-1","parameterCategory":1,"la1":30.2991,"la2":30.254,"lo1":-89.0895,"lo2":-89.0444,"dy":0.0017,"dx":0.0017,"nx":28,"ny":28,"refTime":"2025-08-21T21:00:00:Z","depth":0,"parameterNumber":2,"parameterNumberName":"U-component_of_WINDS"},"data":[0,0,0,0,0,0,0,0,0,0,0,0,0,0,0,0,0,0,0,0,0,0,0,0,0,0,0,0,0,0,0,0,0,0,0,0,0,0,0,0,0,0,0,0,0,0,0,0,0,0,0,0,0,0,0,0,0,0,2.4805,2.4805,0,2.4802,2.4802,2.4802,2.4717,2.4715,2.4713,2.4711,2.4717,2.472,2.4722,0,0,0,0,0,0,0,0,0,0,0,0,0,2.4744,2.4745,2.4805,2.4805,2.4805,2.4802,2.4802,2.4802,2.4718,2.4715,2.4712,2.471,2.4717,2.4719,2.4722,0,0,0,0,0,0,0,0,0,0,0,0,0,2.4759,2.4746,2.4805,2.4762,2.4758,2.4802,2.4802,2.4802,2.4718,2.4715,2.4712,2.4709,2.4716,2.4719,2.4722,2.481,0,0,2.4733,2.4734,0,0,0,0,0,0,0,0,2.4758,2.4761,2.4769,2.4765,2.4761,2.4756,2.4783,2.4805,2.4719,2.4734,2.4711,2.4707,2.4734,2.4735,2.4743,2.481,2.481,2.4733,2.4735,2.4737,2.4737,0,0,0,0,0,0,0,2.4757,2.4761,2.4804,2.4769,2.4764,2.4745,2.4744,2.4787,2.4753,2.4732,2.4726,2.4726,2.4731,2.474,2.4742,2.4811,2.4733,2.4736,2.4738,2.4739,2.4945,2.4948,0,0,0,0,0,0,2.4761,2.4761,2.4804,2.4804,2.4751,2.4749,2.4747,2.4762,2.4752,2.4747,2.4729,2.4723,2.4735,2.4738,2.4742,2.484,2.4736,2.474,2.4742,2.4942,2.4946,2.495,0,0,0,0,0,0,2.476,2.4766,2.4804,2.4781,2.4784,2.4754,2.477,2.4763,2.4771,2.475,2.4744,2.4744,2.4733,2.4737,2.4792,2.4839,2.4741,2.4744,2.4938,2.4943,2.4948,2.5039,0,0,0,0,0,0,2.4759,2.4766,2.4797,2.4782,2.4786,2.4853,2.4773,2.4766,2.4776,2.4767,2.4762,2.4758,2.4731,2.4787,2.4795,2.4842,2.4747,2.4933,2.494,2.4946,2.5032,2.5047,2.506,0,0,0,0,0,2.4757,2.4826,2.4799,2.4805,2.4824,2.4856,2.4858,2.4823,2.4781,2.4812,2.4798,2.4758,2.4833,2.4794,2.4802,2.485,2.493,2.4938,2.4946,2.5026,2.5044,2.5059,0,0,0,0,0,0,2.4853,2.4824,2.4794,2.486,2.486,2.4841,2.4881,2.4844,2.486,2.4851,2.481,2.4809,2.487,2.4866,2.4823,2.4932,2.4874,2.4884,2.4932,2.4949,2.4963,2.4962,2.475,0,0,0,0,0,2.4881,2.4906,2.4881,2.4942,2.4943,2.4912,2.4925,2.4897,2.4897,2.4898,2.4888,2.4892,2.4915,2.4933,2.4954,2.5031,2.5027,2.5068,2.5082,2.5094,2.5103,2.5139,2.5156,2.4975,2.4975,2.4975,0,0,2.4941,2.4928,2.4948,2.4961,2.4958,2.4986,2.4913,2.4948,2.4968,2.4905,2.4953,2.4946,2.4948,2.5012,2.5041,2.5011,2.5151,2.5104,2.5113,2.5115,2.5149,2.5166,2.5181,2.498,2.4979,2.4979,0,0,2.5063,2.5057,2.5105,2.5102,2.5097,2.5075,2.5087,2.5072,2.5063,2.5111,2.5062,2.5088,2.5132,2.5133,2.514,2.5259,2.5221,2.5268,2.534,2.5376,2.539,2.5403,2.5442,2.5457,2.5276,2.5277,2.5277,0,2.5139,2.5177,2.5135,2.5171,2.5177,2.5116,2.5164,2.5165,2.5169,2.5176,2.5142,2.5191,2.5189,2.5251,2.5279,2.5288,2.5299,2.5267,2.5391,2.5403,2.5414,2.5451,2.5467,2.5282,2.5281,2.5281,2.528,0,2.5269,2.5297,2.5337,2.5336,2.5347,2.539,2.5355,2.5372,2.5343,2.5325,2.5373,2.5367,2.5384,2.5397,2.5372,2.5455,2.5436,2.5398,2.5338,2.5437,2.5471,2.5486,2.529,2.5288,2.5286,2.5285,0,0,2.5453,2.5425,2.5441,2.5438,2.5426,2.5448,2.5487,2.5499,2.5513,2.5518,2.5549,2.5585,2.5547,2.5555,2.5529,2.5561,2.5651,2.5518,2.5517,2.554,2.5739,2.5766,2.5784,2.5627,2.5629,2.5631,2.5738,0,2.5568,2.563,2.5592,2.566,2.5683,2.5625,2.5658,2.5656,2.564,2.5659,2.5642,2.5666,2.5617,2.562,2.565,2.5634,2.569,2.5626,2.5655,2.5656,2.5653,2.5802,2.5831,2.5932,2.5751,2.5754,2.5755,0,2.5711,2.5716,2.5786,2.5765,2.5774,2.5804,2.5811,2.583,2.5825,2.5811,2.5817,2.5782,2.582,2.5761,2.5812,2.5769,2.5778,2.5772,2.5775,2.5775,2.571,2.5803,2.5964,2.5978,2.5777,2.5775,2.5773,0,2.5834,2.5859,2.5902,2.5902,2.5881,2.5903,2.5896,2.5888,2.5896,2.5903,2.5908,2.5921,2.5928,2.5939,2.5908,2.5869,2.5961,2.5902,2.595,2.5951,2.5971,2.597,2.6133,2.5982,2.5982,2.5982,2.5981,0,2.5965,2.6009,2.5956,2.5983,2.603,2.5986,2.6035,2.6021,2.6014,2.6037,2.599,2.6013,2.5972,2.5992,2.5969,2.6012,2.6016,2.6006,2.5998,2.6008,2.6009,2.6013,2.6004,2.5986,2.5985,2.5984,2.5983,0,2.6109,2.6076,2.6118,2.6093,2.6087,2.6123,2.6102,2.6126,2.6105,2.6136,2.614,2.6109,2.6129,2.6099,2.6119,2.6102,2.6161,2.6145,2.6161,2.6155,2.6204,2.6198,2.6373,2.6393,2.6232,2.6234,2.6235,0,2.6194,2.6225,2.6202,2.6212,2.6206,2.6224,2.6231,2.619,2.62,2.6194,2.6219,2.6234,2.6244,2.6279,2.6259,2.6272,2.6254,2.6314,2.6256,2.6263,2.6251,2.6248,2.625,2.6326,2.6328,2.633,2.6331,0,2.6346,2.6326,2.6337,2.6341,2.635,2.6352,2.6351,2.6363,2.6319,2.6333,2.635,2.6358,2.6374,2.6389,2.6396,2.639,2.6353,2.6349,2.636,2.637,2.6376,2.637,2.619,2.6345,2.6344,2.6343,2.6342,2.6341,2.646,2.6484,2.6469,2.6482,2.6476,2.6475,2.6495,2.6475,2.6488,2.6495,2.6471,2.6494,2.6486,2.6491,2.6489,2.6506,2.648,2.6498,2.6502,2.6506,2.6511,2.6375,2.6508,2.6508,2.6507,2.6507,2.6507,0,2.6607,2.6594,2.6606,2.6603,2.6613,2.6574,2.657,2.6581,2.6601,2.6596,2.6604,2.6624,2.6637,2.6617,2.6627,2.6645,2.6628,2.6649,2.6646,2.6645,2.6536,2.6524,2.6663,2.6663,2.6662,2.6662,2.6662,2.6662,2.6684,2.672,2.6699,2.6732,2.6719,2.6738,2.6739,2.6738,2.6732,2.6755,2.6764,2.675,2.6738,2.6747,2.6757,2.6751,2.6756,2.6782,2.677,2.6669,2.6653,2.6639,2.6626,2.6784,2.6785,2.6876,2.6877,2.6878]},{"header":{"parameterUnit":"m.s-1","parameterCategory":1,"la1":30.2991,"la2":30.254,"lo1":-89.0895,"lo2":-89.0444,"dy":0.0017,"dx":0.0017,"nx":28,"ny":28,"refTime":"2025-08-21T21:00:00:Z","depth":0,"parameterNumber":3,"parameterNumberName":"V-component_of_WINDS"},"data":[0,0,0,0,0,0,0,0,0,0,0,0,0,0,0,0,0,0,0,0,0,0,0,0,0,0,0,0,0,0,0,0,0,0,0,0,0,0,0,0,0,0,0,0,0,0,0,0,0,0,0,0,0,0,0,0,0,0,3.4416,3.4416,0,3.4424,3.4424,3.4424,3.4387,3.4386,3.4384,3.4383,3.4389,3.4391,3.4392,0,0,0,0,0,0,0,0,0,0,0,0,0,3.4363,3.4364,3.4416,3.4416,3.4416,3.4424,3.4424,3.4424,3.4387,3.4386,3.4384,3.4383,3.4389,3.439,3.4392,0,0,0,0,0,0,0,0,0,0,0,0,0,3.438,3.4364,3.4416,3.4398,3.4397,3.4424,3.4424,3.4425,3.4387,3.4385,3.4384,3.4382,3.4389,3.439,3.4392,3.4436,0,0,3.4397,3.4398,0,0,0,0,0,0,0,0,3.4379,3.4382,3.4401,3.44,3.4398,3.4403,3.4408,3.4428,3.4388,3.4391,3.4383,3.4382,3.4395,3.4396,3.4401,3.4436,3.4436,3.4398,3.4399,3.4399,3.44,0,0,0,0,0,0,0,3.4378,3.4381,3.4419,3.4401,3.44,3.4389,3.4389,3.4411,3.4402,3.439,3.4388,3.4389,3.4394,3.44,3.4401,3.4436,3.4398,3.4399,3.44,3.4401,3.4503,3.4505,0,0,0,0,0,0,3.438,3.4381,3.4419,3.4419,3.4384,3.4391,3.4392,3.4403,3.4402,3.44,3.4391,3.4388,3.4397,3.4399,3.4401,3.4449,3.4399,3.4401,3.4402,3.4501,3.4503,3.4505,0,0,0,0,0,0,3.4379,3.4383,3.4419,3.4399,3.4403,3.4394,3.4407,3.4404,3.441,3.4402,3.44,3.4399,3.4396,3.4399,3.4427,3.4449,3.4402,3.4403,3.4499,3.4502,3.4504,3.4548,0,0,0,0,0,0,3.4377,3.4383,3.4401,3.44,3.4404,3.4446,3.4408,3.4405,3.4413,3.4409,3.4409,3.4407,3.4395,3.4424,3.4428,3.4451,3.4405,3.4497,3.4501,3.4503,3.4544,3.4551,3.4557,0,0,0,0,0,3.4376,3.4414,3.4402,3.4407,3.4427,3.4447,3.4449,3.4435,3.4415,3.4432,3.4426,3.4407,3.4446,3.4427,3.4432,3.4455,3.4496,3.45,3.4503,3.4541,3.455,3.4557,0,0,0,0,0,0,3.4418,3.4413,3.4401,3.444,3.4444,3.4441,3.4462,3.4446,3.4455,3.4451,3.4433,3.4433,3.4463,3.4462,3.4441,3.4495,3.4467,3.4472,3.4495,3.4503,3.4509,3.4508,3.4406,0,0,0,0,0,3.4432,3.445,3.4444,3.4479,3.4482,3.4471,3.448,3.4469,3.4472,3.4473,3.447,3.4473,3.4486,3.4494,3.4506,3.4544,3.4542,3.4562,3.4568,3.4574,3.4578,3.4594,3.4602,3.4517,3.4517,3.4517,0,0,3.446,3.446,3.4473,3.4488,3.449,3.4506,3.4473,3.4494,3.4505,3.4476,3.4502,3.4499,3.4501,3.4534,3.4548,3.4534,3.4601,3.4579,3.4583,3.4584,3.4599,3.4607,3.4614,3.452,3.4519,3.4519,0,0,3.4521,3.4524,3.4551,3.4554,3.4557,3.4549,3.4556,3.4554,3.4551,3.4577,3.4554,3.4567,3.459,3.4591,3.4595,3.4653,3.4634,3.4657,3.4691,3.4707,3.4714,3.472,3.4737,3.4744,3.4661,3.4661,3.4661,0,3.4556,3.4582,3.4567,3.4588,3.4594,3.4568,3.4594,3.4597,3.4604,3.4607,3.4592,3.4618,3.4618,3.4648,3.4662,3.4667,3.4671,3.4656,3.4714,3.472,3.4725,3.4742,3.4749,3.4664,3.4663,3.4663,3.4663,0,3.4623,3.4641,3.4663,3.4669,3.4677,3.4701,3.4688,3.4698,3.4685,3.4679,3.4703,3.4701,3.471,3.4717,3.4706,3.4745,3.4736,3.4718,3.4689,3.4736,3.4751,3.4757,3.4667,3.4666,3.4666,3.4665,0,0,3.4711,3.4707,3.4715,3.4716,3.4716,3.4729,3.475,3.4759,3.4766,3.4772,3.4787,3.4806,3.4788,3.4792,3.478,3.4795,3.4836,3.4774,3.4774,3.4783,3.4876,3.4888,3.4895,3.4825,3.4826,3.4827,3.4875,0,3.4768,3.4804,3.479,3.4827,3.4841,3.4816,3.4833,3.4834,3.4828,3.4838,3.4831,3.4843,3.4821,3.4823,3.4836,3.4828,3.4854,3.4825,3.4836,3.4837,3.4834,3.4904,3.4917,3.4963,3.4881,3.4882,3.4882,0,3.4839,3.4846,3.4884,3.4878,3.4884,3.49,3.4905,3.4916,3.4916,3.491,3.4913,3.4897,3.4915,3.4888,3.4911,3.4891,3.4895,3.4891,3.4893,3.4892,3.4861,3.4902,3.4977,3.4983,3.4892,3.4891,3.4891,0,3.4895,3.4914,3.4938,3.494,3.4935,3.4947,3.4945,3.4943,3.4948,3.4952,3.4955,3.4962,3.4965,3.4969,3.4954,3.4936,3.4978,3.495,3.4971,3.4972,3.498,3.4979,3.5054,3.4987,3.4986,3.4986,3.4986,0,3.4959,3.4982,3.4963,3.4977,3.5002,3.4985,3.5009,3.5004,3.5002,3.5014,3.4993,3.5004,3.4985,3.4993,3.4982,3.5001,3.5003,3.4997,3.4993,3.4998,3.4998,3.4998,3.4994,3.4988,3.4988,3.4987,3.4987,0,3.5025,3.5014,3.5038,3.503,3.5029,3.5047,3.504,3.5052,3.5044,3.5058,3.5061,3.5047,3.5056,3.5042,3.505,3.5042,3.5067,3.506,3.5067,3.5064,3.5085,3.5082,3.5161,3.5169,3.5099,3.51,3.51,0,3.5065,3.5083,3.5076,3.5083,3.5082,3.5093,3.5097,3.5081,3.5086,3.5085,3.5096,3.5104,3.5108,3.5123,3.5113,3.5118,3.5109,3.5136,3.511,3.5113,3.5106,3.5104,3.5105,3.5141,3.5142,3.5143,3.5143,0,3.5137,3.5129,3.5137,3.5142,3.5148,3.5151,3.5153,3.5159,3.5141,3.5148,3.5156,3.516,3.5166,3.5173,3.5175,3.5171,3.5153,3.5152,3.5157,3.516,3.5163,3.5159,3.508,3.515,3.5149,3.5149,3.5148,3.5148,3.5189,3.5202,3.5198,3.5207,3.5206,3.5207,3.5217,3.521,3.5217,3.5221,3.521,3.5221,3.5217,3.5218,3.5216,3.5223,3.521,3.5218,3.5219,3.5221,3.5223,3.5163,3.5223,3.5223,3.5223,3.5223,3.5223,0,3.5257,3.5253,3.5261,3.5263,3.5269,3.5252,3.5252,3.5258,3.5267,3.5265,3.527,3.5278,3.5283,3.5274,3.5277,3.5284,3.5276,3.5285,3.5283,3.5282,3.5235,3.5229,3.5292,3.5292,3.5292,3.5292,3.5292,3.5292,3.5292,3.5311,3.5303,3.5321,3.5317,3.5327,3.5328,3.5328,3.5326,3.5336,3.534,3.5334,3.5328,3.533,3.5334,3.533,3.5331,3.5343,3.5337,3.5293,3.5286,3.5279,3.5274,3.5344,3.5344,3.5383,3.5384,3.5384]}]]